Regional Weather Roundup
Issued by NWS

Home | Current Version | Previous Version | Graphics & Text | Print | Product List | Glossary On
Versions: 1 2 3 4 5 6 7 8 9 10 11 12 13 14 15 16 17 18 19 20 21 22 23 24 25 26 27 28 29 30 31 32 33 34 35 36 37 38 39 40 41 42 43 44 45 46 47 48 49 50
000
ASUS43 KBIS 290159
RWRND

NORTH DAKOTA REGIONAL WEATHER ROUNDUP
NATIONAL WEATHER SERVICE BISMARCK ND
900 PM CDT MON JUL 28 2014

NOTE: "FAIR" INDICATES FEW OR NO CLOUDS BELOW 12,000 FEET WITH NO
SIGNIFICANT WEATHER AND/OR OBSTRUCTIONS TO VISIBILITY.


NDZ001>003-009>011-017-290300-
NORTHWEST NORTH DAKOTA

CITY           SKY/WX    TMP DP  RH WIND       PRES   REMARKS
WILLISTON      CLEAR     77  51  40 E7        30.20S
MINOT          CLEAR     68  57  68 NE3       30.22S
$$

NDZ018>021-031>035-040>046-290300-
SOUTHWEST NORTH DAKOTA

CITY           SKY/WX    TMP DP  RH WIND       PRES   REMARKS
BISMARCK       CLEAR     69  53  56 E6        30.23S
DICKINSON      CLEAR     67  56  67 E6        30.23S
GARRISON         N/A     68  59  73 SE3       30.23S
HETTINGER ARPT PTCLDY    69  52  54 E10       30.25S
$$

NDZ004>008-012>016-024-026-027-054-290300-
NORTHEAST NORTH DAKOTA

CITY           SKY/WX    TMP DP  RH WIND       PRES   REMARKS
GRAND FORKS    PTCLDY    66  60  81 N3        30.18S
DEVILS LAKE    CLEAR     68  54  60 W5        30.20F
$$

NDZ022-023-025-028>030-036>039-047>053-290300-
SOUTHEAST NORTH DAKOTA

CITY           SKY/WX    TMP DP  RH WIND       PRES   REMARKS
FARGO          CLEAR     68  55  63 W5        30.18S
$$




USA.gov is the U.S. government's official web portal to all federal, state and local government web resources and services.